| time (UTC) | temp F | wind direction | speed MPH | gust MPH | rain 1hr in | rain 24hr in | rain mn in | humidity % | barometer mb |
| 20260906174218 | 90 | 134 | 10.0 | 14.0 | 0.00 | 0.00 | 0.00 | 70 | 1018.2 |
| 20260906173713 | 89 | 154 | 11.0 | 16.0 | 0.00 | 0.00 | 0.00 | 70 | 1018.1 |
| 20260906173208 | 89 | 126 | 14.0 | 19.0 | 0.00 | 0.00 | 0.00 | 69 | 1018.3 |
| 20260906172703 | 91 | 125 | 14.0 | 15.0 | 0.00 | 0.00 | 0.00 | 65 | 1018.4 |
| 20260906172159 | 90 | 179 | 10.0 | 17.0 | 0.00 | 0.00 | 0.00 | 69 | 1018.5 |
| 20260906171658 | 90 | 297 | 7.0 | 14.0 | 0.00 | 0.00 | 0.00 | 67 | 1018.4 |
| 20260906171154 | 90 | 183 | 8.0 | 15.0 | 0.00 | 0.00 | 0.00 | 68 | 1018.5 |
| 20260906170650 | 91 | 106 | 10.0 | 17.0 | 0.00 | 0.00 | 0.00 | 65 | 1018.6 |
| 20260906170149 | 90 | 92 | 9.0 | 17.0 | 0.00 | 0.00 | 0.00 | 65 | 1018.5 |
| 20260906165646 | 91 | 140 | 9.0 | 16.0 | 0.00 | 0.00 | 0.00 | 66 | 1018.5 |
| 20260906165141 | 91 | 140 | 9.0 | 15.0 | 0.00 | 0.00 | 0.00 | 66 | 1018.6 |
| 20260906164639 | 90 | 166 | 9.0 | 17.0 | 0.00 | 0.00 | 0.00 | 65 | 1018.8 |
| 20260906164135 | 90 | 163 | 9.0 | 15.0 | 0.00 | 0.00 | 0.00 | 66 | 1018.9 |
| 20260906163631 | 90 | 219 | 5.0 | 15.0 | 0.00 | 0.00 | 0.00 | 69 | 1018.8 |
| 20260906163127 | 92 | 122 | 10.0 | 17.0 | 0.00 | 0.00 | 0.00 | 64 | 1018.8 |
| 20260906162624 | 91 | 108 | 12.0 | 17.0 | 0.00 | 0.00 | 0.00 | 65 | 1018.9 |
| 20260906162124 | 90 | 123 | 9.0 | 16.0 | 0.00 | 0.00 | 0.00 | 62 | 1019.0 |
| 20260906161624 | 91 | 121 | 15.0 | 17.0 | 0.00 | 0.00 | 0.00 | 65 | 1019.0 |
| 20260906161123 | 91 | 189 | 11.0 | 15.0 | 0.00 | 0.00 | 0.00 | 62 | 1018.9 |
| 20260906160621 | 92 | 201 | 11.0 | 16.0 | 0.00 | 0.00 | 0.00 | 59 | 1019.4 |
| 20260906160120 | 91 | 100 | 9.0 | 17.0 | 0.00 | 0.00 | 0.00 | 60 | 1019.3 |
| 20260906155618 | 92 | 135 | 10.0 | 16.0 | 0.00 | 0.00 | 0.00 | 61 | 1019.5 |
| 20260906155114 | 92 | 80 | 11.0 | 18.0 | 0.00 | 0.00 | 0.00 | 64 | 1019.4 |
| 20260906154609 | 91 | 109 | 9.0 | 14.0 | 0.00 | 0.00 | 0.00 | 63 | 1019.5 |
| 20260906154108 | 92 | 113 | 7.0 | 14.0 | 0.00 | 0.00 | 0.00 | 61 | 1019.7 |
| 20260906153608 | 91 | 149 | 10.0 | 15.0 | 0.00 | 0.00 | 0.00 | 63 | 1019.7 |
| 20260906153102 | 91 | 128 | 14.0 | 17.0 | 0.00 | 0.00 | 0.00 | 63 | 1019.9 |
| 20260906152557 | 90 | 87 | 9.0 | 15.0 | 0.00 | 0.00 | 0.00 | 65 | 1019.9 |
| 20260906152057 | 91 | 102 | 12.0 | 17.0 | 0.00 | 0.00 | 0.00 | 66 | 1020.0 |
| 20260906151552 | 91 | 125 | 8.0 | 18.0 | 0.00 | 0.00 | 0.00 | 63 | 1020.0 |
| 20260906151047 | 91 | 138 | 10.0 | 15.0 | 0.00 | 0.00 | 0.00 | 64 | 1019.9 |
| 20260906150542 | 91 | 102 | 10.0 | 15.0 | 0.00 | 0.00 | 0.00 | 65 | 1019.8 |
| 20260906150038 | 92 | 110 | 9.0 | 15.0 | 0.00 | 0.00 | 0.00 | 62 | 1020.1 |
| 20260906145536 | 92 | 122 | 8.0 | 14.0 | 0.00 | 0.00 | 0.00 | 63 | 1020.0 |
| 20260906145032 | 91 | 129 | 7.0 | 10.0 | 0.00 | 0.00 | 0.00 | 64 | 1020.1 |
| 20260906144526 | 91 | 116 | 12.0 | 15.0 | 0.00 | 0.00 | 0.00 | 61 | 1020.1 |
| 20260906144021 | 91 | 93 | 7.0 | 15.0 | 0.00 | 0.00 | 0.00 | 62 | 1020.2 |
| 20260906143516 | 91 | 122 | 12.0 | 16.0 | 0.00 | 0.00 | 0.00 | 63 | 1020.2 |
| 20260906143014 | 89 | 124 | 9.0 | 11.0 | 0.00 | 0.00 | 0.00 | 69 | 1020.2 |
| 20260906142513 | 88 | 108 | 8.0 | 13.0 | 0.00 | 0.00 | 0.00 | 69 | 1020.4 |
| 20260906142008 | 88 | 136 | 8.0 | 15.0 | 0.00 | 0.00 | 0.00 | 70 | 1020.2 |
| 20260906141507 | 87 | 92 | 10.0 | 13.0 | 0.00 | 0.00 | 0.00 | 73 | 1020.2 |
| 20260906141002 | 86 | 171 | 5.0 | 11.0 | 0.00 | 0.00 | 0.00 | 75 | 1020.2 |
| 20260906140456 | 86 | 109 | 9.0 | 13.0 | 0.00 | 0.00 | 0.00 | 75 | 1020.1 |
| 20260906135954 | 86 | 91 | 9.0 | 14.0 | 0.00 | 0.00 | 0.00 | 75 | 1020.2 |
| 20260906135453 | 86 | 118 | 9.0 | 11.0 | 0.00 | 0.00 | 0.00 | 76 | 1020.2 |
| 20260906134949 | 85 | 91 | 8.0 | 10.0 | 0.00 | 0.00 | 0.00 | 76 | 1020.1 |
| 20260906134445 | 86 | 101 | 14.0 | 16.0 | 0.00 | 0.00 | 0.00 | 74 | 1020.2 |
| 20260906133944 | 87 | 108 | 9.0 | 14.0 | 0.00 | 0.00 | 0.00 | 74 | 1019.9 |
| 20260906133440 | 87 | 99 | 7.0 | 14.0 | 0.00 | 0.00 | 0.00 | 75 | 1020.0 |
| 20260906132936 | 87 | 127 | 8.0 | 11.0 | 0.00 | 0.00 | 0.00 | 74 | 1019.9 |
| 20260906132431 | 86 | 90 | 8.0 | 14.0 | 0.00 | 0.00 | 0.00 | 74 | 1020.1 |
| 20260906131926 | 86 | 104 | 9.0 | 11.0 | 0.00 | 0.00 | 0.00 | 75 | 1019.9 |
| 20260906131422 | 85 | 122 | 9.0 | 13.0 | 0.00 | 0.00 | 0.00 | 76 | 1019.9 |
| 20260906130917 | 85 | 110 | 8.0 | 10.0 | 0.00 | 0.00 | 0.00 | 77 | 1019.8 |
| 20260906130417 | 85 | 111 | 9.0 | 14.0 | 0.00 | 0.00 | 0.00 | 77 | 1019.9 |
| 20260906125916 | 86 | 109 | 11.0 | 17.0 | 0.00 | 0.00 | 0.00 | 75 | 1020.0 |
| 20260906125414 | 86 | 61 | 2.0 | 10.0 | 0.00 | 0.00 | 0.00 | 74 | 1019.9 |
| 20260906124908 | 86 | 100 | 9.0 | 13.0 | 0.00 | 0.00 | 0.00 | 75 | 1019.8 |
| 20260906124404 | 84 | 127 | 7.0 | 11.0 | 0.00 | 0.00 | 0.00 | 78 | 1019.6 |
| 20260906123904 | 83 | 88 | 6.0 | 14.0 | 0.00 | 0.00 | 0.00 | 79 | 1019.6 |
| 20260906123358 | 83 | 103 | 7.0 | 11.0 | 0.00 | 0.00 | 0.00 | 80 | 1019.6 |
| 20260906122858 | 82 | 47 | 7.0 | 15.0 | 0.00 | 0.00 | 0.00 | 80 | 1019.5 |
| 20260906122352 | 83 | 128 | 6.0 | 10.0 | 0.00 | 0.00 | 0.00 | 79 | 1019.4 |
| 20260906121849 | 82 | 110 | 10.0 | 15.0 | 0.00 | 0.00 | 0.00 | 79 | 1019.4 |
| 20260906121345 | 82 | 39 | 9.0 | 13.0 | 0.00 | 0.00 | 0.00 | 79 | 1019.3 |
| 20260906120841 | 82 | 69 | 5.0 | 11.0 | 0.00 | 0.00 | 0.00 | 80 | 1019.4 |
| 20260906120337 | 82 | 131 | 7.0 | 10.0 | 0.00 | 0.00 | 0.00 | 80 | 1019.4 |
| 20260906115833 | 82 | 0 | 3.0 | 8.0 | 0.00 | 0.00 | 0.00 | 80 | 1019.3 |
| 20260906115328 | 82 | 77 | 8.0 | 10.0 | 0.00 | 0.00 | 0.00 | 80 | 1019.2 |
| 20260906114827 | 82 | 122 | 4.0 | 9.0 | 0.00 | 0.00 | 0.00 | 80 | 1019.4 |
| 20260906114323 | 82 | 65 | 6.0 | 10.0 | 0.00 | 0.00 | 0.00 | 81 | 1019.1 |
| 20260906113817 | 81 | 96 | 8.0 | 11.0 | 0.00 | 0.00 | 0.00 | 81 | 1019.2 |
| 20260906113317 | 81 | 69 | 9.0 | 16.0 | 0.00 | 0.00 | 0.00 | 82 | 1019.1 |
| 20260906112812 | 81 | 123 | 5.0 | 11.0 | 0.00 | 0.00 | 0.00 | 83 | 1018.9 |
| 20260906112309 | 81 | 12 | 9.0 | 13.0 | 0.00 | 0.00 | 0.00 | 83 | 1018.8 |
| 20260906111808 | 81 | 76 | 6.0 | 14.0 | 0.00 | 0.00 | 0.00 | 84 | 1018.6 |
| 20260906111307 | 80 | 70 | 11.0 | 11.0 | 0.00 | 0.00 | 0.00 | 85 | 1018.8 |
| 20260906110803 | 80 | 84 | 11.0 | 13.0 | 0.00 | 0.00 | 0.00 | 85 | 1018.9 |
| 20260906110259 | 80 | 85 | 7.0 | 11.0 | 0.00 | 0.00 | 0.00 | 85 | 1018.7 |
| 20260906105757 | 80 | 86 | 5.0 | 11.0 | 0.00 | 0.00 | 0.00 | 85 | 1018.5 |
| 20260906105253 | 80 | 104 | 8.0 | 10.0 | 0.00 | 0.00 | 0.00 | 85 | 1018.7 |
| 20260906104749 | 80 | 73 | 9.0 | 11.0 | 0.00 | 0.00 | 0.00 | 85 | 1018.6 |
| 20260906104247 | 80 | 101 | 7.0 | 14.0 | 0.00 | 0.00 | 0.00 | 85 | 1018.4 |
| 20260906103745 | 80 | 76 | 12.0 | 14.0 | 0.00 | 0.00 | 0.00 | 85 | 1018.5 |
| 20260906103239 | 80 | 83 | 11.0 | 16.0 | 0.00 | 0.00 | 0.00 | 85 | 1018.5 |
| 20260906102736 | 80 | 332 | 6.0 | 17.0 | 0.00 | 0.00 | 0.00 | 85 | 1018.4 |
| 20260906102234 | 80 | 82 | 6.0 | 10.0 | 0.00 | 0.00 | 0.00 | 85 | 1018.5 |
| 20260906101729 | 80 | 75 | 6.0 | 13.0 | 0.00 | 0.00 | 0.00 | 86 | 1018.3 |
| 20260906101224 | 80 | 358 | 5.0 | 9.0 | 0.00 | 0.00 | 0.00 | 85 | 1018.2 |
| 20260906100720 | 80 | 128 | 3.0 | 14.0 | 0.00 | 0.00 | 0.00 | 86 | 1018.2 |
| 20260906100220 | 80 | 75 | 11.0 | 15.0 | 0.00 | 0.00 | 0.00 | 86 | 1017.9 |
| 20260906095721 | 80 | 116 | 10.0 | 14.0 | 0.00 | 0.00 | 0.00 | 86 | 1017.9 |
| 20260906095216 | 80 | 75 | 6.0 | 14.0 | 0.00 | 0.00 | 0.00 | 86 | 1018.1 |
| 20260906094714 | 80 | 72 | 9.0 | 10.0 | 0.00 | 0.00 | 0.00 | 86 | 1017.8 |
| 20260906094210 | 80 | 69 | 6.0 | 11.0 | 0.00 | 0.00 | 0.00 | 86 | 1017.8 |
| 20260906093706 | 80 | 59 | 7.0 | 8.0 | 0.00 | 0.00 | 0.00 | 86 | 1017.6 |
| 20260906093202 | 80 | 172 | 5.0 | 10.0 | 0.00 | 0.00 | 0.00 | 86 | 1017.6 |
| 20260906092657 | 80 | 85 | 6.0 | 11.0 | 0.00 | 0.00 | 0.00 | 86 | 1017.5 |
| 20260906092156 | 80 | 68 | 9.0 | 11.0 | 0.00 | 0.00 | 0.00 | 86 | 1017.3 |
| 20260906091653 | 80 | 165 | 7.0 | 14.0 | 0.00 | 0.00 | 0.00 | 86 | 1017.4 |
| 20260906091149 | 80 | 74 | 8.0 | 13.0 | 0.00 | 0.00 | 0.00 | 86 | 1017.4 |
| 20260906090645 | 80 | 84 | 9.0 | 11.0 | 0.00 | 0.00 | 0.00 | 86 | 1017.3 |
| 20260906090144 | 80 | 81 | 5.0 | 10.0 | 0.00 | 0.00 | 0.00 | 86 | 1017.4 |
| 20260906085642 | 80 | 98 | 8.0 | 11.0 | 0.00 | 0.00 | 0.00 | 86 | 1017.3 |
| 20260906085137 | 80 | 88 | 5.0 | 11.0 | 0.00 | 0.00 | 0.00 | 86 | 1017.2 |
| 20260906084631 | 80 | 49 | 5.0 | 13.0 | 0.00 | 0.00 | 0.00 | 86 | 1017.2 |
| 20260906084130 | 80 | 123 | 9.0 | 14.0 | 0.00 | 0.00 | 0.00 | 86 | 1017.2 |
| 20260906083627 | 80 | 64 | 10.0 | 16.0 | 0.00 | 0.00 | 0.00 | 86 | 1017.2 |
| 20260906083126 | 80 | 88 | 7.0 | 10.0 | 0.00 | 0.00 | 0.00 | 86 | 1017.3 |
| 20260906082622 | 80 | 59 | 3.0 | 8.0 | 0.00 | 0.00 | 0.00 | 86 | 1017.3 |
| 20260906082117 | 80 | 91 | 6.0 | 9.0 | 0.00 | 0.00 | 0.00 | 87 | 1017.1 |
| 20260906081613 | 80 | 84 | 8.0 | 14.0 | 0.00 | 0.00 | 0.00 | 87 | 1017.2 |
| 20260906081108 | 80 | 95 | 10.0 | 14.0 | 0.00 | 0.00 | 0.00 | 87 | 1017.1 |
| 20260906080606 | 80 | 86 | 8.0 | 14.0 | 0.00 | 0.00 | 0.00 | 87 | 1017.1 |
| 20260906075600 | 80 | 105 | 11.0 | 13.0 | 0.00 | 0.00 | 0.00 | 87 | 1017.2 |
| 20260906075055 | 80 | 153 | 11.0 | 19.0 | 0.00 | 0.00 | 0.00 | 87 | 1017.3 |
| 20260906074551 | 80 | 126 | 10.0 | 14.0 | 0.00 | 0.00 | 0.00 | 87 | 1017.1 |
| 20260906074049 | 80 | 64 | 10.0 | 14.0 | 0.00 | 0.00 | 0.00 | 87 | 1017.3 |
| 20260906073544 | 80 | 111 | 11.0 | 15.0 | 0.00 | 0.00 | 0.00 | 87 | 1017.3 |
| 20260906073040 | 80 | 134 | 12.0 | 16.0 | 0.00 | 0.00 | 0.00 | 87 | 1017.3 |
| 20260906072534 | 80 | 88 | 12.0 | 15.0 | 0.00 | 0.00 | 0.00 | 87 | 1017.2 |
| 20260906072031 | 80 | 119 | 9.0 | 16.0 | 0.00 | 0.00 | 0.00 | 87 | 1017.1 |
| 20260906071527 | 80 | 114 | 9.0 | 13.0 | 0.00 | 0.00 | 0.00 | 87 | 1017.2 |
| 20260906071022 | 80 | 104 | 10.0 | 16.0 | 0.00 | 0.00 | 0.00 | 87 | 1017.3 |
| 20260906070518 | 80 | 87 | 9.0 | 17.0 | 0.00 | 0.00 | 0.00 | 87 | 1017.4 |
| 20260906070014 | 80 | 87 | 9.0 | 16.0 | 0.00 | 0.00 | 0.00 | 87 | 1017.2 |
| 20260906065513 | 80 | 90 | 10.0 | 19.0 | 0.00 | 0.00 | 0.00 | 87 | 1017.3 |
| 20260906065009 | 80 | 98 | 12.0 | 18.0 | 0.00 | 0.00 | 0.00 | 87 | 1017.3 |
| 20260906064504 | 80 | 131 | 11.0 | 16.0 | 0.00 | 0.00 | 0.00 | 87 | 1017.5 |
| 20260906063959 | 80 | 83 | 6.0 | 16.0 | 0.00 | 0.00 | 0.00 | 87 | 1017.3 |
| 20260906063455 | 80 | 100 | 8.0 | 14.0 | 0.00 | 0.00 | 0.00 | 87 | 1017.4 |
| 20260906062955 | 80 | 90 | 15.0 | 17.0 | 0.00 | 0.00 | 0.00 | 86 | 1017.3 |
| 20260906062450 | 80 | 105 | 7.0 | 11.0 | 0.00 | 0.00 | 0.00 | 86 | 1017.6 |
| 20260906061945 | 80 | 96 | 10.0 | 17.0 | 0.00 | 0.00 | 0.00 | 86 | 1017.5 |
| 20260906061441 | 80 | 103 | 7.0 | 11.0 | 0.00 | 0.00 | 0.00 | 86 | 1017.7 |
| 20260906060935 | 80 | 111 | 11.0 | 16.0 | 0.00 | 0.00 | 0.00 | 86 | 1017.6 |
| 20260906060432 | 80 | 67 | 11.0 | 13.0 | 0.00 | 0.00 | 0.00 | 86 | 1017.7 |
| 20260906055929 | 80 | 85 | 8.0 | 13.0 | 0.00 | 0.00 | 0.00 | 85 | 1017.7 |
| 20260906055424 | 80 | 88 | 6.0 | 10.0 | 0.00 | 0.00 | 0.00 | 85 | 1017.9 |
| 20260906054920 | 80 | 67 | 8.0 | 10.0 | 0.00 | 0.00 | 0.00 | 85 | 1018.2 |
| 20260906054414 | 80 | 81 | 6.0 | 9.0 | 0.00 | 0.00 | 0.00 | 85 | 1018.3 |
| 20260906053910 | 80 | 94 | 3.0 | 11.0 | 0.00 | 0.00 | 0.00 | 85 | 1018.1 |
| 20260906053406 | 80 | 114 | 13.0 | 18.0 | 0.00 | 0.00 | 0.00 | 85 | 1017.9 |
| 20260906052901 | 80 | 101 | 10.0 | 14.0 | 0.00 | 0.00 | 0.00 | 86 | 1018.1 |
| 20260906052358 | 80 | 89 | 9.0 | 15.0 | 0.00 | 0.00 | 0.00 | 86 | 1017.9 |
| 20260906051854 | 80 | 36 | 9.0 | 14.0 | 0.00 | 0.00 | 0.00 | 86 | 1018.3 |
| 20260906051354 | 80 | 131 | 7.0 | 14.0 | 0.00 | 0.00 | 0.00 | 86 | 1018.2 |
| 20260906050850 | 80 | 71 | 10.0 | 15.0 | 0.00 | 0.00 | 0.00 | 86 | 1018.3 |
| 20260906050344 | 80 | 98 | 9.0 | 16.0 | 0.00 | 0.00 | 0.00 | 86 | 1018.4 |
| 20260906045843 | 80 | 123 | 5.0 | 13.0 | 0.00 | 0.00 | 0.00 | 87 | 1018.5 |
| 20260906045338 | 80 | 84 | 8.0 | 15.0 | 0.00 | 0.00 | 0.00 | 87 | 1018.6 |
| 20260906044835 | 80 | 100 | 8.0 | 11.0 | 0.00 | 0.00 | 0.00 | 87 | 1018.7 |
| 20260906044334 | 80 | 118 | 10.0 | 11.0 | 0.00 | 0.00 | 0.00 | 87 | 1018.7 |
| 20260906043830 | 80 | 87 | 7.0 | 11.0 | 0.00 | 0.00 | 0.00 | 87 | 1018.6 |
| 20260906043326 | 80 | 93 | 9.0 | 10.0 | 0.00 | 0.00 | 0.00 | 87 | 1018.8 |
| 20260906042826 | 81 | 132 | 9.0 | 16.0 | 0.00 | 0.00 | 0.00 | 87 | 1018.8 |
| 20260906042325 | 81 | 81 | 11.0 | 14.0 | 0.00 | 0.00 | 0.00 | 88 | 1018.9 |
| 20260906041821 | 81 | 113 | 9.0 | 15.0 | 0.00 | 0.00 | 0.00 | 88 | 1018.9 |
| 20260906041316 | 81 | 85 | 12.0 | 14.0 | 0.00 | 0.00 | 0.00 | 88 | 1019.1 |
| 20260906040811 | 81 | 62 | 6.0 | 11.0 | 0.00 | 0.00 | 0.00 | 88 | 1018.8 |
| 20260906040306 | 81 | 120 | 8.0 | 10.0 | 0.00 | 0.00 | 0.00 | 88 | 1018.7 |
| 20260906035802 | 81 | 86 | 9.0 | 14.0 | 0.00 | 0.00 | 0.00 | 88 | 1018.9 |
| 20260906035257 | 81 | 131 | 8.0 | 13.0 | 0.00 | 0.00 | 0.00 | 88 | 1018.9 |
| 20260906034757 | 81 | 104 | 10.0 | 16.0 | 0.00 | 0.00 | 0.00 | 88 | 1019.2 |
| 20260906034257 | 81 | 68 | 8.0 | 11.0 | 0.00 | 0.00 | 0.00 | 87 | 1019.2 |
| 20260906033753 | 81 | 92 | 13.0 | 15.0 | 0.00 | 0.00 | 0.00 | 87 | 1019.2 |
| 20260906033252 | 81 | 159 | 10.0 | 13.0 | 0.00 | 0.00 | 0.00 | 87 | 1019.3 |
| 20260906032749 | 81 | 97 | 12.0 | 15.0 | 0.00 | 0.00 | 0.00 | 87 | 1019.4 |
| 20260906032249 | 81 | 81 | 10.0 | 13.0 | 0.00 | 0.00 | 0.00 | 87 | 1019.1 |
| 20260906031745 | 81 | 86 | 10.0 | 14.0 | 0.00 | 0.00 | 0.00 | 87 | 1019.1 |
| 20260906031241 | 81 | 96 | 10.0 | 11.0 | 0.00 | 0.00 | 0.00 | 87 | 1019.1 |
| 20260906030740 | 81 | 113 | 9.0 | 14.0 | 0.00 | 0.00 | 0.00 | 87 | 1019.3 |
| 20260906030235 | 81 | 125 | 11.0 | 14.0 | 0.00 | 0.00 | 0.00 | 87 | 1019.2 |
| 20260906025734 | 81 | 104 | 11.0 | 16.0 | 0.00 | 0.00 | 0.00 | 87 | 1019.3 |
| 20260906025229 | 82 | 66 | 7.0 | 13.0 | 0.00 | 0.00 | 0.00 | 87 | 1019.0 |
| 20260906024728 | 81 | 109 | 11.0 | 15.0 | 0.00 | 0.00 | 0.00 | 87 | 1019.3 |
| 20260906024227 | 81 | 109 | 9.0 | 11.0 | 0.00 | 0.00 | 0.00 | 87 | 1019.3 |
| 20260906023723 | 81 | 99 | 7.0 | 15.0 | 0.00 | 0.00 | 0.00 | 87 | 1019.3 |
| 20260906023219 | 82 | 94 | 13.0 | 18.0 | 0.00 | 0.00 | 0.00 | 87 | 1019.2 |
| 20260906022714 | 82 | 107 | 10.0 | 13.0 | 0.00 | 0.00 | 0.00 | 87 | 1019.1 |
| 20260906022209 | 82 | 130 | 10.0 | 11.0 | 0.00 | 0.00 | 0.00 | 86 | 1019.3 |
| 20260906021705 | 82 | 89 | 11.0 | 17.0 | 0.00 | 0.00 | 0.00 | 86 | 1019.2 |
| 20260906021204 | 82 | 92 | 9.0 | 13.0 | 0.00 | 0.00 | 0.00 | 86 | 1019.4 |
| 20260906020659 | 82 | 77 | 9.0 | 14.0 | 0.00 | 0.00 | 0.00 | 86 | 1019.6 |
| 20260906020154 | 81 | 96 | 7.0 | 14.0 | 0.00 | 0.00 | 0.00 | 86 | 1019.4 |
| 20260906015654 | 82 | 111 | 9.0 | 13.0 | 0.00 | 0.00 | 0.00 | 86 | 1019.5 |
| 20260906015153 | 82 | 20 | 8.0 | 11.0 | 0.00 | 0.00 | 0.00 | 86 | 1019.5 |
| 20260906014652 | 82 | 91 | 9.0 | 11.0 | 0.00 | 0.00 | 0.00 | 86 | 1019.7 |
| 20260906014149 | 82 | 99 | 7.0 | 13.0 | 0.00 | 0.00 | 0.00 | 86 | 1019.6 |
| 20260906013644 | 82 | 53 | 8.0 | 10.0 | 0.00 | 0.00 | 0.00 | 86 | 1019.5 |
| 20260906013139 | 82 | 149 | 6.0 | 10.0 | 0.00 | 0.00 | 0.00 | 86 | 1019.4 |
| 20260906012640 | 82 | 102 | 8.0 | 11.0 | 0.00 | 0.00 | 0.00 | 86 | 1019.5 |
| 20260906012139 | 82 | 106 | 8.0 | 11.0 | 0.00 | 0.00 | 0.00 | 86 | 1019.2 |
| 20260906011635 | 82 | 40 | 4.0 | 13.0 | 0.00 | 0.00 | 0.00 | 86 | 1019.2 |
| 20260906011130 | 82 | 90 | 10.0 | 10.0 | 0.00 | 0.00 | 0.00 | 86 | 1018.9 |
| 20260906010626 | 82 | 122 | 5.0 | 11.0 | 0.00 | 0.00 | 0.00 | 86 | 1019.0 |
| 20260906010122 | 82 | 110 | 9.0 | 10.0 | 0.00 | 0.00 | 0.00 | 85 | 1018.8 |
| 20260906005621 | 82 | 95 | 6.0 | 9.0 | 0.00 | 0.00 | 0.00 | 85 | 1019.0 |
| 20260906005120 | 82 | 114 | 8.0 | 10.0 | 0.00 | 0.00 | 0.00 | 85 | 1019.0 |
| 20260906004619 | 82 | 107 | 6.0 | 11.0 | 0.00 | 0.00 | 0.00 | 85 | 1018.7 |
| 20260906004114 | 82 | 71 | 5.0 | 9.0 | 0.00 | 0.00 | 0.00 | 85 | 1018.8 |
| 20260906003610 | 82 | 153 | 5.0 | 9.0 | 0.00 | 0.00 | 0.00 | 85 | 1018.9 |
| 20260906003107 | 82 | 130 | 8.0 | 9.0 | 0.00 | 0.00 | 0.00 | 85 | 1018.9 |
| 20260906002606 | 82 | 92 | 7.0 | 8.0 | 0.00 | 0.00 | 0.00 | 85 | 1018.9 |
| 20260906002101 | 82 | 76 | 8.0 | 11.0 | 0.00 | 0.00 | 0.00 | 86 | 1018.6 |
| 20260906001557 | 82 | 119 | 5.0 | 10.0 | 0.00 | 0.00 | 0.00 | 86 | 1018.7 |
| 20260906001056 | 82 | 94 | 8.0 | 11.0 | 0.00 | 0.00 | 0.00 | 86 | 1018.8 |
| 20260906000553 | 82 | 147 | 7.0 | 10.0 | 0.00 | 0.00 | 0.00 | 86 | 1018.7 |
| 20260906000048 | 82 | 90 | 10.0 | 11.0 | 0.00 | 0.00 | 0.00 | 86 | 1018.6 |
| 20260905235547 | 82 | 94 | 6.0 | 11.0 | 0.00 | 0.00 | 0.00 | 85 | 1018.6 |
| 20260905235042 | 82 | 97 | 6.0 | 10.0 | 0.00 | 0.00 | 0.00 | 85 | 1018.5 |
| 20260905234537 | 82 | 105 | 6.0 | 11.0 | 0.00 | 0.00 | 0.00 | 85 | 1018.6 |
| 20260905234032 | 82 | 93 | 8.0 | 9.0 | 0.00 | 0.00 | 0.00 | 85 | 1018.6 |
| 20260905233532 | 82 | 93 | 10.0 | 13.0 | 0.00 | 0.00 | 0.00 | 85 | 1018.7 |
| 20260905233032 | 82 | 97 | 8.0 | 10.0 | 0.00 | 0.00 | 0.00 | 85 | 1018.8 |
| 20260905232528 | 82 | 110 | 7.0 | 9.0 | 0.00 | 0.00 | 0.00 | 86 | 1018.5 |
| 20260905232024 | 82 | 115 | 6.0 | 9.0 | 0.00 | 0.00 | 0.00 | 86 | 1018.5 |
| 20260905231518 | 82 | 142 | 6.0 | 9.0 | 0.00 | 0.00 | 0.00 | 86 | 1018.3 |
| 20260905231015 | 82 | 79 | 3.0 | 11.0 | 0.00 | 0.00 | 0.00 | 86 | 1018.3 |
| 20260905230514 | 82 | 78 | 5.0 | 8.0 | 0.00 | 0.00 | 0.00 | 85 | 1018.3 |
| 20260905230012 | 82 | 93 | 4.0 | 9.0 | 0.00 | 0.00 | 0.00 | 85 | 1018.3 |
| 20260905225507 | 82 | 82 | 5.0 | 10.0 | 0.00 | 0.00 | 0.00 | 84 | 1018.3 |
| 20260905225002 | 82 | 90 | 7.0 | 13.0 | 0.00 | 0.00 | 0.00 | 84 | 1017.9 |
| 20260905224457 | 82 | 84 | 6.0 | 11.0 | 0.00 | 0.00 | 0.00 | 84 | 1017.9 |
| 20260905223956 | 82 | 120 | 8.0 | 11.0 | 0.00 | 0.00 | 0.00 | 84 | 1017.9 |
| 20260905223454 | 82 | 80 | 7.0 | 11.0 | 0.00 | 0.00 | 0.00 | 84 | 1018.2 |
| 20260905222950 | 82 | 175 | 5.0 | 10.0 | 0.00 | 0.00 | 0.00 | 84 | 1017.8 |
| 20260905222449 | 82 | 110 | 7.0 | 9.0 | 0.00 | 0.00 | 0.00 | 85 | 1018.1 |
| 20260905221945 | 82 | 79 | 6.0 | 10.0 | 0.00 | 0.00 | 0.00 | 85 | 1017.8 |
| 20260905221441 | 82 | 96 | 8.0 | 10.0 | 0.00 | 0.00 | 0.00 | 84 | 1017.7 |
| 20260905220937 | 83 | 85 | 7.0 | 11.0 | 0.00 | 0.00 | 0.00 | 84 | 1017.9 |
| 20260905220433 | 83 | 54 | 8.0 | 9.0 | 0.00 | 0.00 | 0.00 | 84 | 1017.9 |
| 20260905215932 | 83 | 73 | 7.0 | 11.0 | 0.00 | 0.00 | 0.00 | 84 | 1017.8 |
| 20260905215428 | 83 | 105 | 9.0 | 10.0 | 0.00 | 0.00 | 0.00 | 84 | 1017.9 |
| 20260905214924 | 83 | 105 | 10.0 | 13.0 | 0.00 | 0.00 | 0.00 | 83 | 1017.9 |
| 20260905214420 | 83 | 79 | 5.0 | 11.0 | 0.00 | 0.00 | 0.00 | 83 | 1018.2 |
| 20260905213919 | 83 | 74 | 7.0 | 11.0 | 0.00 | 0.00 | 0.00 | 82 | 1018.3 |
| 20260905213416 | 83 | 98 | 8.0 | 13.0 | 0.00 | 0.00 | 0.00 | 82 | 1017.9 |
| 20260905212911 | 83 | 185 | 4.0 | 14.0 | 0.00 | 0.00 | 0.00 | 82 | 1017.9 |
| 20260905212406 | 84 | 84 | 7.0 | 15.0 | 0.00 | 0.00 | 0.00 | 81 | 1017.8 |
| 20260905211905 | 84 | 184 | 10.0 | 13.0 | 0.00 | 0.00 | 0.00 | 80 | 1017.8 |
| 20260905211401 | 84 | 109 | 9.0 | 15.0 | 0.00 | 0.00 | 0.00 | 79 | 1017.6 |
| 20260905210857 | 85 | 109 | 7.0 | 15.0 | 0.00 | 0.00 | 0.00 | 77 | 1017.8 |
| 20260905210357 | 85 | 111 | 7.0 | 11.0 | 0.00 | 0.00 | 0.00 | 76 | 1017.6 |
| 20260905205856 | 85 | 95 | 10.0 | 13.0 | 0.00 | 0.00 | 0.00 | 75 | 1017.9 |
| 20260905205351 | 86 | 69 | 12.0 | 16.0 | 0.00 | 0.00 | 0.00 | 74 | 1017.6 |
| 20260905204850 | 86 | 87 | 12.0 | 16.0 | 0.00 | 0.00 | 0.00 | 74 | 1017.6 |
| 20260905204346 | 86 | 145 | 12.0 | 15.0 | 0.00 | 0.00 | 0.00 | 74 | 1017.6 |
| 20260905203844 | 86 | 117 | 10.0 | 13.0 | 0.00 | 0.00 | 0.00 | 75 | 1017.7 |
| 20260905203341 | 86 | 90 | 11.0 | 14.0 | 0.00 | 0.00 | 0.00 | 73 | 1017.4 |
| 20260905202836 | 86 | 104 | 12.0 | 14.0 | 0.00 | 0.00 | 0.00 | 73 | 1017.3 |
| 20260905202331 | 86 | 100 | 8.0 | 14.0 | 0.00 | 0.00 | 0.00 | 75 | 1017.4 |
| 20260905201827 | 86 | 165 | 10.0 | 15.0 | 0.00 | 0.00 | 0.00 | 73 | 1017.6 |
| 20260905201322 | 87 | 105 | 9.0 | 16.0 | 0.00 | 0.00 | 0.00 | 72 | 1017.6 |
| 20260905200822 | 87 | 127 | 12.0 | 15.0 | 0.00 | 0.00 | 0.00 | 73 | 1017.7 |
| 20260905200318 | 87 | 83 | 13.0 | 15.0 | 0.00 | 0.00 | 0.00 | 72 | 1017.8 |
| 20260905195816 | 87 | 66 | 10.0 | 16.0 | 0.00 | 0.00 | 0.00 | 71 | 1017.4 |
| 20260905195311 | 88 | 170 | 7.0 | 17.0 | 0.00 | 0.00 | 0.00 | 72 | 1017.4 |
| 20260905194807 | 88 | 92 | 10.0 | 17.0 | 0.00 | 0.00 | 0.00 | 72 | 1017.4 |
| 20260905194307 | 88 | 149 | 10.0 | 15.0 | 0.00 | 0.00 | 0.00 | 70 | 1017.3 |
| 20260905193806 | 87 | 2 | 7.0 | 14.0 | 0.00 | 0.00 | 0.00 | 73 | 1017.4 |
| 20260905193301 | 87 | 86 | 15.0 | 16.0 | 0.00 | 0.00 | 0.00 | 71 | 1017.5 |
| 20260905192756 | 88 | 96 | 10.0 | 19.0 | 0.00 | 0.00 | 0.00 | 72 | 1017.5 |
| 20260905192253 | 88 | 85 | 11.0 | 15.0 | 0.00 | 0.00 | 0.00 | 71 | 1017.4 |
| 20260905191751 | 88 | 143 | 8.0 | 17.0 | 0.00 | 0.00 | 0.00 | 71 | 1017.4 |
| 20260905191250 | 88 | 74 | 10.0 | 15.0 | 0.00 | 0.00 | 0.00 | 70 | 1017.3 |
| 20260905190749 | 88 | 51 | 11.0 | 19.0 | 0.00 | 0.00 | 0.00 | 71 | 1017.4 |
| 20260905190248 | 88 | 139 | 11.0 | 16.0 | 0.00 | 0.00 | 0.00 | 70 | 1017.4 |
| 20260905185748 | 88 | 120 | 11.0 | 17.0 | 0.00 | 0.00 | 0.00 | 70 | 1017.5 |
| 20260905185243 | 88 | 119 | 8.0 | 18.0 | 0.00 | 0.00 | 0.00 | 70 | 1017.6 |
| 20260905184742 | 89 | 92 | 13.0 | 17.0 | 0.00 | 0.00 | 0.00 | 67 | 1017.3 |
| 20260905184241 | 89 | 64 | 9.0 | 17.0 | 0.00 | 0.00 | 0.00 | 68 | 1017.5 |
| 20260905183735 | 89 | 98 | 9.0 | 17.0 | 0.00 | 0.00 | 0.00 | 70 | 1017.5 |
| 20260905183231 | 90 | 153 | 13.0 | 18.0 | 0.00 | 0.00 | 0.00 | 66 | 1017.6 |
| 20260905182730 | 89 | 120 | 12.0 | 17.0 | 0.00 | 0.00 | 0.00 | 70 | 1017.7 |
| 20260905182230 | 89 | 105 | 16.0 | 21.0 | 0.00 | 0.00 | 0.00 | 69 | 1017.6 |
| 20260905181725 | 90 | 84 | 9.0 | 17.0 | 0.00 | 0.00 | 0.00 | 70 | 1017.7 |
| 20260905181224 | 89 | 124 | 15.0 | 17.0 | 0.00 | 0.00 | 0.00 | 68 | 1017.7 |
| 20260905180719 | 89 | 116 | 13.0 | 16.0 | 0.00 | 0.00 | 0.00 | 67 | 1017.7 |
| 20260905180215 | 89 | 139 | 11.0 | 15.0 | 0.00 | 0.00 | 0.00 | 69 | 1017.8 |
| 20260905175714 | 90 | 118 | 14.0 | 18.0 | 0.00 | 0.00 | 0.00 | 66 | 1017.8 |
| 20260905175209 | 91 | 154 | 16.0 | 22.0 | 0.00 | 0.00 | 0.00 | 62 | 1017.7 |
| 20260905174704 | 91 | 132 | 11.0 | 16.0 | 0.00 | 0.00 | 0.00 | 67 | 1017.9 |